This is the latest recevied weather packets stored in our database for station/object WX4LTG. If no packets are shown the sender has not sent any weather packets the latest 10 day(s).
| Time | Temp. | Humidity | Pressure | Rain* | Wind** | Luminosity | Snow |
|---|---|---|---|---|---|---|---|
| 1777430854 | 26.11° C | 16% | 1013.4 hPa | 0 mm | - | 0 W/m² | - |
| 1777430551 | 26.11° C | 17% | 1013.3 hPa | 0 mm | - | 0 W/m² | - |
| 1777430246 | 26.11° C | 17% | 1013.1 hPa | 0 mm | - | 0 W/m² | - |
| 1777429941 | 26.67° C | 17% | 1013.2 hPa | 0 mm | - | 0 W/m² | - |
| 1777429639 | 26.67° C | 17% | 1013.1 hPa | 0 mm | - | 0 W/m² | - |
| 1777429335 | 26.67° C | 17% | 1013.2 hPa | 0 mm | - | 0 W/m² | - |
| 1777429029 | 26.67° C | 17% | 1013.1 hPa | 0 mm | - | 1 W/m² | - |
| 1777428726 | 26.67° C | 17% | 1012.9 hPa | 0 mm | - | 2 W/m² | - |
| 1777428422 | 27.22° C | 17% | 1012.7 hPa | 0 mm | - | 4 W/m² | - |
| 1777428118 | 27.22° C | 16% | 1012.8 hPa | 0 mm | - | 6 W/m² | - |
| 1777427814 | 27.22° C | 16% | 1012.7 hPa | 0 mm | - | 9 W/m² | - |
| 1777427511 | 27.22° C | 17% | 1012.6 hPa | 0 mm | - | 12 W/m² | - |
| 1777427206 | 27.22° C | 16% | 1012.8 hPa | 0 mm | - | 17 W/m² | - |
| 1777426904 | 27.22° C | 16% | 1012.8 hPa | 0 mm | - | 26 W/m² | - |
| 1777426601 | 27.78° C | 16% | 1012.9 hPa | 0 mm | - | 32 W/m² | - |
| 1777426297 | 27.78° C | 16% | 1013.1 hPa | 0 mm | - | 38 W/m² | - |
| 1777425992 | 27.78° C | 16% | 1012.9 hPa | 0 mm | - | 42 W/m² | - |
| 1777425687 | 27.78° C | 16% | 1012.8 hPa | 0 mm | - | 53 W/m² | - |
| 1777425383 | 27.78° C | 16% | 1012.9 hPa | 0 mm | - | 65 W/m² | - |
| 1777425080 | 28.33° C | 16% | 1012.9 hPa | 0 mm | - | 59 W/m² | - |
| 1777424776 | 28.33° C | 16% | 1012.9 hPa | 0 mm | - | 66 W/m² | - |
| 1777424471 | 28.33° C | 16% | 1013 hPa | 0 mm | - | 74 W/m² | - |
| 1777424166 | 28.33° C | 16% | 1013 hPa | 0 mm | - | 90 W/m² | - |
| 1777423864 | 27.78° C | 16% | 1013.1 hPa | 0 mm | - | 111 W/m² | - |
| 1777423561 | 28.33° C | 16% | 1012.8 hPa | 0 mm | - | 118 W/m² | - |
* Rain latest hour (hover to see other rain measurements)
** Current wind speed in m/s (hover to see current wind gust speed)